Limon, CO

7:52 PM MDT on March 24, 2017 (GMT -0600)
Limon Municipal

Weather History for KLIC - January, 2013

Change the Weather History Date:

Saturday, January 19, 2013

  Actual Average Record
Temperature  
Mean Temperature 35 °F -  
Max Temperature 51 °F - 68 °F (2003)
Min Temperature 18 °F - -6 °F (2002)
Degree Days  
Heating Degree Days 30    
Month to date heating degree days 863  
Cooling Degree Days 0    
Month to date cooling degree days 0  
Moisture  
Dew Point 11 °F    
Average Humidity 48    
Maximum Humidity 81    
Minimum Humidity 17    
Precipitation  
Precipitation 0.00 in - 0.05 in (2006)
Month to date precipitation 0.16  
Year to date precipitation 0.16  
Sea Level Pressure  
Sea Level Pressure 30.21 in    
Wind  
Wind Speed 5 mph (NW)    
Max Wind Speed 15 mph    
Max Gust Speed 17 mph    
Visibility 10 miles    
Events      
T = Trace of Precipitation, MM = Missing Value Source: NWS Daily Summary

Daily Weather History Graph

Daily Weather History Graph

Search for Another Location

Airport or City:

Trip Planner

Search our weather history database for the weather conditions in past years. The results will help you decide how hot, cold, wet, or windy it might be!

Date:

Astronomy

Jan. 19, 2013 Rise Set
Actual Time 7:10 AM MST 5:00 PM MST
Civil Twilight 6:41 AM MST 5:29 PM MST
Nautical Twilight 6:08 AM MST 6:02 PM MST
Astronomical Twilight 5:36 AM MST 6:34 PM MST
Moon 11:27 AM MST (1/19) 12:47 AM MST (1/19)
Length of Visible Light 10h 48m
Length of Day
9h 49m
First Quarter, 58% of the Moon is Illuminated
Jan 19
First Quarter
Jan 26
Full
Feb 3
Last Quarter
Feb 10
New
Feb 17
First Quarter

Hourly Weather History & Observations

Time (MST) Temp. Windchill Dew Point Humidity Pressure Visibility Wind Dir Wind Speed Gust Speed Precip Events Conditions
12:55 AM 24.1 °F 18.2 °F 10.9 °F 57% 30.04 in 10.0 mi NW 4.6 mph - N/A   Clear
1:55 AM 25.0 °F 14.8 °F 10.0 °F 53% 30.06 in 10.0 mi WNW 10.4 mph - N/A   Clear
2:55 AM 23.0 °F 18.4 °F 12.0 °F 63% 30.09 in 10.0 mi NW 3.5 mph - N/A   Clear
3:55 AM 27.0 °F 18.7 °F 10.9 °F 51% 30.07 in 10.0 mi West 8.1 mph - N/A   Clear
4:55 AM 19.0 °F - 10.9 °F 71% 30.18 in 10.0 mi Calm Calm - N/A   Clear
5:55 AM 24.1 °F 15.2 °F 10.9 °F 57% 30.25 in 10.0 mi WNW 8.1 mph - N/A   Clear
6:55 AM 21.9 °F 10.4 °F 10.9 °F 63% 30.29 in 10.0 mi NNW 11.5 mph - N/A   Clear
7:55 AM 30.9 °F 21.7 °F 12.9 °F 47% 30.27 in 10.0 mi NW 11.5 mph - N/A   Clear
8:55 AM 39.9 °F 36.7 °F 15.1 °F 36% 30.27 in 10.0 mi NNW 4.6 mph - N/A   Clear
9:55 AM 46.0 °F 41.0 °F 8.1 °F 21% 30.28 in 10.0 mi North 10.4 mph - N/A   Clear
10:55 AM 46.9 °F - 9.0 °F 21% 30.27 in 10.0 mi North 9.2 mph - N/A   Clear
11:55 AM 48.9 °F - 9.0 °F 20% 30.25 in 10.0 mi NNE 4.6 mph - N/A   Clear
12:55 PM 51.1 °F - 9.0 °F 18% 30.20 in 10.0 mi Calm Calm - N/A   Clear
1:55 PM 51.1 °F - 7.0 °F 17% 30.20 in 10.0 mi Calm Calm - N/A   Clear
2:55 PM 50.0 °F - 8.1 °F 18% 30.19 in 10.0 mi SSW 3.5 mph - N/A   Clear
3:55 PM 48.9 °F - 10.0 °F 21% 30.18 in 10.0 mi SSE 8.1 mph - N/A   Clear
4:55 PM 37.9 °F 32.7 °F 12.9 °F 36% 30.26 in 10.0 mi SSE 6.9 mph - N/A   Clear
5:55 PM 30.9 °F 25.2 °F 14.0 °F 50% 30.27 in 10.0 mi SSE 5.8 mph - N/A   Clear
6:55 PM 23.0 °F - 15.1 °F 72% 30.32 in 10.0 mi Calm Calm - N/A   Clear
7:55 PM 19.9 °F - 15.1 °F 81% 30.30 in 10.0 mi Calm Calm - N/A   Clear
8:55 PM 19.9 °F - 15.1 °F 81% 30.27 in 10.0 mi Calm Calm - N/A   Clear
9:55 PM 19.0 °F - 14.0 °F 81% 30.24 in 10.0 mi Calm Calm - N/A   Clear
10:55 PM 21.9 °F 17.2 °F 12.0 °F 66% 30.20 in 10.0 mi Variable 3.5 mph - N/A   Clear
11:55 PM 23.0 °F - 10.9 °F 60% 30.17 in 10.0 mi Calm Calm - N/A   Clear